Theta_e
331 331 332 331 331 332 332 330 330 329 328 328 329 329 330 329 329 329 329 329 329 329 329 329 330 330 329 329 329 329 329 328 328 328 329 328 328 325 319 320 323 326 328 329 328 327 327 329 329 330 330 331 330 329 329 328 327 326 325 325 325 325 324 324 324 326 328 328 328 326 325 325 324 323 323 323 323 323 323 323 323 323 323 323 323
331 331 330 330 330 330 330 329 329 329 327 327 328 328 328 328 327 328 329 329 329 328 329 328 329 329 329 329 329 328 328 328 328 327 328 328 328 327 318 318 321 324 327 328 330 328 328 329 329 329 330 330 330 328 328 328 326 325 324 323 325 324 324 324 324 327 327 326 325 325 324 323 322 322 322 322 322 322 321 323 323 323 323 322 322
331 331 330 330 329 328 328 329 328 328 327 326 328 327 327 327 327 327 328 328 329 329 328 328 329 329 329 329 329 329 328 328 327 328 327 328 329 328 328 317 319 322 325 328 329 330 328 327 327 328 329 329 329 328 328 327 326 324 324 324 326 324 324 325 327 327 326 325 323 323 323 322 322 322 322 322 322 321 322 322 322 322 322 321 321
331 330 330 329 328 328 328 327 327 327 326 326 326 325 325 326 326 325 325 326 327 328 329 327 328 328 329 329 329 328 328 328 327 327 328 328 328 328 328 327 318 318 321 324 327 329 330 327 326 327 328 328 328 328 327 325 325 324 324 325 325 325 325 326 327 327 324 323 322 323 322 322 323 321 320 321 321 321 321 321 321 321 321 321 320
330 330 329 328 328 328 327 326 327 326 326 325 325 325 324 323 323 322 322 323 324 326 328 326 326 327 329 329 328 328 328 328 328 327 327 328 328 328 328 328 328 318 316 319 323 326 329 330 328 327 328 327 327 327 326 324 325 324 325 326 326 325 327 327 326 325 323 322 320 321 323 322 321 320 321 320 320 320 321 321 321 321 321 320 320
329 329 329 328 327 327 327 326 326 326 325 325 324 324 323 323 323 322 319 321 323 325 326 325 326 327 328 329 328 328 328 328 327 327 328 328 328 328 328 328 327 328 329 317 318 323 327 329 330 328 327 327 327 326 325 325 325 323 324 326 326 326 327 327 325 324 323 320 321 321 322 321 321 320 320 319 320 320 320 320 320 321 320 320 319
329 329 328 328 327 326 326 326 327 326 324 324 323 323 323 323 323 322 323 322 324 325 325 325 326 326 327 327 327 327 328 327 328 328 327 328 327 327 328 327 327 328 328 327 318 317 322 327 330 328 328 327 327 326 326 324 325 325 325 327 327 327 327 327 325 323 322 321 321 321 320 320 320 320 320 319 319 319 320 320 320 320 320 319 319
328 328 327 327 326 326 326 326 325 325 324 323 322 322 322 323 324 324 325 325 325 324 325 324 326 326 326 327 327 327 326 327 327 327 327 327 327 327 327 326 326 326 323 326 326 325 319 323 326 328 329 327 327 327 326 326 325 326 328 327 327 327 327 327 324 322 322 320 321 320 321 320 319 319 319 318 319 319 319 319 320 320 320 319 318
328 328 327 327 326 326 326 325 325 324 324 323 321 322 323 323 324 325 326 324 324 324 323 324 325 325 326 326 326 326 325 325 326 326 328 327 327 326 326 326 327 319 327 326 327 326 321 318 323 326 327 328 326 327 326 326 326 326 328 329 328 328 328 326 324 322 321 321 320 320 320 320 319 319 319 318 319 319 319 319 319 320 319 319 318
327 328 327 327 327 326 325 325 324 323 323 323 323 323 324 325 325 326 325 325 323 322 322 323 325 324 324 325 325 325 324 325 325 322 325 325 326 326 327 327 326 327 327 328 328 326 327 322 318 320 320 321 326 326 326 325 325 325 326 327 328 329 329 327 324 322 320 319 320 320 320 320 319 318 318 318 318 319 319 319 319 319 319 318 318
326 327 326 326 325 326 325 325 324 323 322 322 323 323 324 324 325 325 326 325 324 323 323 323 323 323 322 322 323 323 325 325 325 324 324 326 326 326 329 327 327 327 327 328 328 328 327 327 327 326 326 317 322 324 324 324 323 323 322 323 324 329 329 327 323 321 320 319 320 320 319 319 319 318 318 318 318 319 318 318 319 319 319 318 318
326 326 326 325 325 325 325 325 324 323 321 321 322 323 322 322 323 324 325 324 323 323 323 322 320 320 318 320 321 322 323 323 324 323 324 325 325 326 325 327 327 327 327 328 327 327 327 327 324 327 326 321 316 320 322 322 320 320 320 321 323 327 328 328 324 321 320 319 319 319 319 319 319 318 318 318 318 318 318 318 318 319 318 318 318
325 326 326 323 324 325 325 324 324 322 321 321 323 323 324 325 324 324 322 322 322 322 320 320 318 317 319 319 320 322 322 322 321 322 323 324 324 324 324 324 325 326 327 327 327 327 327 326 326 327 325 325 321 314 317 318 316 318 320 321 322 326 328 328 326 322 320 319 319 320 319 319 319 318 318 318 318 318 318 318 318 318 318 318 318
326 326 327 326 324 324 325 324 323 322 322 323 323 321 324 324 324 322 321 321 321 322 320 318 316 314 314 315 318 320 321 321 320 321 323 324 325 324 324 325 325 326 327 327 327 326 326 326 326 326 326 326 324 323 319 316 316 316 318 319 320 325 327 328 327 323 320 320 319 320 320 319 318 319 318 317 317 318 318 318 318 318 318 318 318
327 326 327 327 326 325 325 324 323 323 321 321 323 322 323 322 323 321 320 320 319 322 320 319 316 318 316 313 310 313 319 319 322 321 323 324 325 324 324 324 325 327 327 326 326 325 326 326 326 326 326 325 323 322 322 317 318 314 315 316 318 321 325 327 326 323 321 320 320 320 320 319 319 319 318 318 317 317 317 318 318 318 317 318 318
327 327 326 327 327 327 327 326 324 324 323 322 322 322 322 322 322 321 321 318 315 317 319 320 319 318 310 312 313 312 308 312 319 321 321 321 321 321 322 323 324 325 326 324 324 325 325 326 325 325 325 324 323 322 322 321 316 311 311 312 314 317 321 325 327 323 322 321 320 319 319 319 319 319 318 318 317 317 317 317 317 317 316 317 317
327 327 326 327 328 328 327 327 326 325 325 324 324 323 323 323 322 321 320 319 319 319 319 319 320 321 315 313 311 310 310 312 314 316 318 317 317 318 319 320 322 323 323 323 324 324 324 324 324 324 324 323 323 322 322 321 318 313 312 308 311 314 317 322 325 326 323 322 321 319 319 320 319 318 319 318 318 317 317 317 316 316 316 316 316
326 326 326 325 327 327 328 327 326 325 325 325 325 325 324 323 322 321 320 321 320 319 318 317 319 320 320 319 316 311 313 316 312 307 319 319 321 318 318 318 320 321 322 322 323 323 323 323 323 323 322 322 322 322 321 320 316 317 315 315 311 313 315 318 322 325 325 323 322 321 319 320 319 319 319 318 318 318 317 316 316 315 315 315 315
325 326 326 326 325 327 327 327 327 326 325 325 325 325 325 324 323 322 322 321 320 318 318 318 317 317 319 320 321 321 321 316 312 314 311 317 317 318 317 318 319 320 320 321 322 322 322 322 322 322 321 321 321 321 320 320 317 316 316 315 314 314 315 317 318 322 325 325 323 322 320 319 320 319 318 318 318 317 317 316 316 315 315 315 315
325 325 326 325 325 326 326 326 326 326 325 325 325 326 326 325 323 323 323 322 321 318 318 319 316 315 317 317 318 319 320 320 319 315 313 310 313 318 319 320 320 319 319 319 320 321 321 321 320 321 320 320 320 319 319 319 318 316 315 314 315 315 316 317 318 319 321 323 325 323 322 321 319 319 318 318 317 317 317 316 316 315 315 315 314
325 325 325 325 324 325 326 325 325 325 324 326 325 326 325 325 323 321 321 322 321 321 320 318 318 317 317 316 316 316 317 317 317 317 312 311 309 312 313 316 314 315 316 318 319 321 321 320 320 319 319 319 319 319 319 318 317 317 316 314 316 316 316 317 317 318 319 320 322 322 323 322 320 320 319 318 318 317 317 316 316 316 315 315 314
325 325 325 325 325 324 325 325 325 325 323 325 325 325 325 325 324 323 322 321 321 321 320 320 320 319 318 318 315 314 314 314 314 314 313 312 308 310 313 313 312 316 318 318 319 320 320 319 319 318 318 318 318 318 318 317 317 316 314 313 316 317 318 317 317 318 319 320 320 320 321 322 322 320 320 319 318 318 317 317 316 316 316 315 314
325 324 325 325 325 324 324 325 325 324 323 324 324 325 324 324 324 324 322 321 320 320 319 320 320 319 319 318 317 316 314 313 313 313 311 309 309 309 311 313 312 313 318 321 321 321 320 319 318 318 318 317 317 317 317 316 309 310 306 307 310 314 317 318 317 316 318 320 320 319 319 319 321 321 321 319 318 317 317 316 316 316 315 315 314
325 324 324 325 324 324 324 324 324 324 324 324 324 325 324 324 324 323 322 321 321 320 320 319 319 319 319 319 319 319 317 316 316 316 313 312 312 311 312 314 315 316 319 321 322 321 320 319 318 318 318 317 317 317 316 316 313 305 306 304 307 310 314 317 318 317 317 318 319 319 319 319 319 319 318 318 319 318 317 317 316 316 316 315 315
324 323 324 324 324 324 323 322 323 324 324 325 324 325 325 324 323 323 322 321 321 320 319 319 319 318 318 319 319 319 318 319 318 317 317 316 314 312 314 316 313 314 316 316 317 320 320 319 319 318 317 317 317 316 316 315 315 306 300 304 303 306 310 315 317 318 317 318 319 319 319 319 319 319 319 318 318 318 317 317 316 316 316 315 315
324 324 325 325 324 324 324 324 324 325 324 324 324 324 324 323 323 322 322 322 322 321 320 320 320 320 320 318 318 318 319 319 318 318 317 316 315 314 313 313 314 312 316 313 317 316 318 319 319 319 317 316 316 316 315 315 314 303 298 306 306 303 306 310 314 316 318 319 319 319 318 318 319 319 318 318 318 318 317 316 316 315 315 314 315
324 325 325 325 324 324 324 324 324 324 324 324 323 323 323 323 322 323 322 322 322 321 321 320 319 319 320 319 319 320 319 320 319 319 320 319 317 317 315 311 312 311 311 314 314 313 316 320 320 319 318 317 316 316 315 315 309 303 297 305 311 303 303 307 311 314 316 318 318 318 318 318 318 319 318 317 317 317 317 316 315 315 314 314 314
326 325 326 325 324 324 324 324 324 324 324 324 323 322 322 322 321 321 321 322 322 321 320 321 320 320 320 320 320 319 320 320 320 320 320 320 320 319 318 316 310 309 311 309 309 309 315 316 320 320 319 317 317 316 310 310 314 302 296 307 308 308 303 305 309 312 313 315 317 318 318 317 317 317 317 316 315 315 314 313 313 312 312 312 312
325 326 326 325 325 324 324 324 324 324 324 323 323 322 322 321 321 321 320 321 321 320 321 320 320 320 320 320 319 319 320 320 321 321 321 321 321 321 320 317 316 311 308 305 307 308 313 315 315 320 319 318 316 316 315 313 309 307 308 307 308 310 306 304 307 311 312 312 313 316 317 317 317 317 316 315 313 314 313 312 311 311 311 311 311
325 326 325 324 325 320 324 323 324 324 323 323 322 322 322 321 321 320 321 321 320 320 320 320 320 320 320 320 320 320 320 321 321 321 321 321 321 321 320 320 318 314 312 309 310 311 314 316 316 317 317 317 317 316 315 313 303 305 309 308 308 309 304 303 306 309 311 311 311 313 315 316 316 315 315 314 313 312 311 311 310 310 310 309 309
324 325 324 324 324 323 323 323 324 323 323 323 322 322 322 321 321 320 321 321 320 319 320 320 320 320 320 319 320 320 321 321 322 322 321 321 321 320 319 319 318 317 315 313 308 314 317 317 318 318 318 316 316 315 314 313 306 304 307 308 308 302 300 303 302 306 307 309 310 311 312 315 315 315 315 314 313 313 313 311 311 310 310 310 310
324 324 323 323 323 323 322 323 323 323 323 322 322 322 321 321 320 320 320 320 320 319 320 321 320 320 320 319 319 320 320 321 321 321 321 321 321 320 319 319 319 318 316 314 311 312 315 316 318 319 318 316 314 312 312 312 309 297 307 307 306 299 301 304 299 300 303 306 309 310 311 312 313 314 315 314 313 313 313 312 312 311 310 310 309
324 323 323 323 323 323 323 322 323 323 322 322 322 321 320 320 320 320 321 320 320 320 320 320 321 320 320 319 319 320 321 320 320 321 321 321 321 320 319 318 317 317 316 313 311 311 315 312 313 316 312 312 308 307 308 310 311 307 301 303 302 301 300 301 301 297 299 301 304 306 308 310 311 311 312 312 312 312 312 312 312 311 310 309 309
324 323 322 323 323 323 322 322 322 323 322 322 322 321 320 320 320 320 320 320 319 319 320 319 320 321 321 320 319 320 322 321 320 319 319 319 319 318 317 316 316 316 317 314 312 311 311 306 308 306 306 307 307 307 306 307 307 304 300 298 298 298 299 299 299 300 298 299 301 303 305 307 307 308 308 308 309 309 310 310 309 308 307 306 306
323 323 322 323 323 323 322 322 322 322 322 322 322 321 320 319 319 319 320 320 319 319 319 319 319 320 320 318 318 320 321 320 318 318 318 317 317 316 315 315 314 315 315 314 312 309 309 311 315 312 306 304 306 307 305 306 306 303 300 297 297 298 297 298 297 297 297 298 299 300 302 303 304 305 305 305 306 305 305 305 305 304 304 304 304
322 322 323 322 322 322 322 322 322 322 322 321 321 321 320 320 319 319 319 320 320 320 319 319 319 319 318 317 317 318 318 317 317 316 316 316 315 314 313 313 313 313 313 311 312 311 310 309 304 311 308 304 304 302 303 302 302 301 302 301 299 299 298 297 297 298 297 297 297 298 299 300 301 302 303 303 304 304 304 304 304 303 303 302 302
322 321 321 321 322 321 321 321 321 321 321 320 320 320 320 320 320 319 319 320 320 320 319 318 311 318 317 317 318 317 317 315 315 314 314 312 312 313 313 314 312 312 311 311 311 311 310 309 308 301 300 299 297 298 301 300 298 298 297 298 299 299 300 300 299 299 295 295 295 296 297 298 299 300 300 301 301 301 302 302 302 301 300 300 300
321 321 320 320 320 320 321 321 321 321 320 320 320 319 319 319 319 320 320 319 319 319 319 319 319 318 317 317 317 317 316 315 314 314 314 314 314 313 312 312 312 311 311 311 311 310 309 310 310 299 293 295 295 294 293 296 295 294 295 295 295 295 296 298 297 295 295 294 294 294 294 294 295 296 297 298 299 300 300 300 300 299 298 298 298
321 320 319 320 320 320 320 321 320 320 319 319 319 319 319 319 318 318 318 318 318 317 318 318 318 318 318 318 317 316 315 315 315 315 314 314 313 312 311 311 310 309 309 309 308 307 307 305 300 300 295 292 293 293 292 293 293 292 295 296 296 296 294 294 294 293 291 291 291 291 292 293 293 294 295 296 297 297 298 298 298 298 297 297 298
320 319 318 318 319 319 320 320 320 319 319 318 317 318 318 318 317 317 317 316 317 318 317 317 317 317 317 318 317 316 316 315 315 316 315 313 311 310 309 309 309 309 308 308 305 303 301 300 300 296 292 292 289 288 289 290 290 290 291 293 297 301 298 295 293 293 291 289 289 290 290 291 291 292 292 293 293 294 295 296 296 295 295 296 297
319 319 319 318 317 316 317 318 318 318 317 316 316 317 317 317 318 318 318 316 315 315 315 315 315 315 315 315 315 315 313 303 302 305 306 306 312 309 308 308 308 308 308 306 304 302 300 298 295 293 292 291 290 289 289 290 292 296 296 295 296 298 298 296 293 292 291 289 290 291 291 291 290 290 291 291 292 293 293 293 294 293 294 295 296
317 318 319 317 316 315 314 314 314 315 315 316 307 305 307 316 317 317 317 316 315 314 312 311 311 312 313 312 311 300 299 297 297 298 300 300 301 309 313 310 308 307 305 302 300 299 298 296 297 295 294 294 293 294 295 297 297 297 295 294 293 296 294 294 294 291 291 291 291 290 292 292 291 290 290 290 291 292 292 293 293 293 293 294 295
315 315 315 315 314 314 313 313 312 313 313 313 303 304 304 305 313 316 315 314 314 314 313 312 311 308 309 309 310 302 298 295 298 296 298 298 298 299 301 302 302 309 305 300 299 298 297 298 298 296 296 297 296 297 298 300 299 297 297 295 295 293 292 293 293 287 289 291 289 288 289 289 290 288 290 290 291 292 292 292 291 291 291 292 292
310 310 311 312 312 312 312 312 311 311 312 303 303 302 302 303 303 314 315 314 312 312 311 312 312 309 307 306 305 306 305 305 306 301 297 295 296 296 296 297 297 299 301 303 300 295 295 297 295 296 297 297 297 298 298 299 296 294 294 293 292 291 289 291 291 290 286 288 287 287 289 287 288 288 289 291 291 291 290 289 289 289 289 290 291
306 306 308 310 310 310 310 309 309 309 309 303 301 301 301 301 301 305 314 313 312 311 310 310 310 308 304 303 302 303 304 294 296 305 304 300 293 293 293 293 293 296 298 298 299 301 303 300 295 296 299 300 301 302 301 298 297 293 291 290 291 290 290 291 291 290 284 287 287 287 287 289 289 289 287 290 289 288 288 288 288 288 289 289 289
303 304 304 304 306 306 307 309 308 308 307 301 300 300 300 299 300 302 311 311 311 311 310 309 308 307 304 303 302 301 299 296 296 300 302 300 298 297 296 297 299 295 293 296 295 295 297 303 301 301 302 301 301 302 299 296 295 293 292 292 291 289 289 290 288 286 284 286 288 288 287 290 286 286 286 287 287 286 287 286 286 287 287 288 288
301 302 301 301 303 302 303 305 307 306 306 300 299 298 299 299 299 299 309 309 310 310 310 308 308 307 305 304 302 302 299 297 297 297 298 298 298 297 295 295 296 295 296 297 299 301 300 303 303 301 300 300 299 297 295 296 297 296 295 294 292 289 287 287 286 285 285 285 286 287 286 287 285 285 286 286 286 285 286 285 284 284 285 286 287
298 299 299 299 300 300 300 301 302 304 304 298 297 297 298 298 298 301 307 306 307 307 306 303 302 303 303 303 302 302 301 300 294 293 296 298 298 293 292 293 292 291 290 289 291 293 296 296 296 296 297 298 295 295 295 295 292 291 289 289 288 288 289 289 289 286 286 284 285 286 285 286 285 284 285 285 285 284 284 283 282 284 284 285 286
298 298 299 298 299 300 298 299 301 302 301 296 296 296 297 298 298 303 304 304 303 302 301 299 299 299 299 300 300 301 299 298 293 294 295 294 294 291 291 290 291 290 289 290 290 291 291 292 292 293 293 294 294 294 293 292 291 292 291 290 288 289 289 289 288 287 287 283 284 285 285 285 285 284 284 284 283 282 282 281 281 282 283 284 285
296 297 298 297 297 298 298 298 299 300 300 295 294 295 296 296 298 303 303 302 300 298 297 296 296 296 296 291 293 299 297 296 293 294 294 293 294 291 290 289 288 288 287 289 289 289 289 290 290 291 292 292 292 293 292 292 291 292 293 291 289 290 289 289 289 287 285 283 284 285 283 284 283 283 282 283 281 281 280 281 281 281 283 284 285
296 296 296 297 296 296 297 298 292 298 299 294 292 294 295 296 297 303 300 300 297 296 296 294 292 294 293 289 289 293 296 295 293 294 294 293 294 291 291 290 289 288 288 288 287 287 287 287 288 288 288 288 290 290 289 289 289 289 291 288 288 290 289 288 288 286 286 286 282 283 283 283 281 282 281 282 281 279 280 280 281 281 282 282 282
Wind_Speed
8 8 7 7 7 7 5 6 5 5 4 4 4 5 3 2 2 3 3 4 4 4 4 5 5 5 5 5 6 6 5 5 5 5 5 5 4 3 6 5 6 7 7 8 8 8 9 7 8 7 8 7 6 5 6 2 6 6 5 4 3 2 2 1 3 3 5 5 7 6 5 4 3 2 3 4 5 6 7 8 10 11 11 11 11
8 8 8 7 7 7 7 6 6 5 4 5 4 4 5 4 4 3 4 4 5 5 5 6 6 6 6 5 6 7 6 5 5 5 5 5 5 4 8 7 7 7 7 7 9 9 9 8 8 9 8 8 8 7 6 7 7 7 6 2 4 1 2 1 3 5 6 5 5 5 4 4 4 3 4 5 6 7 8 9 9 10 10 10 11
9 9 8 8 8 8 7 7 6 6 5 5 5 5 4 5 5 4 4 4 5 5 6 6 6 6 6 6 6 6 6 5 5 5 5 5 5 5 5 8 7 7 8 8 8 10 9 9 9 9 9 9 10 9 8 7 7 7 6 4 5 4 2 3 4 6 6 5 3 3 4 4 5 5 5 6 6 7 8 9 9 9 9 10 10
9 9 9 8 8 8 8 7 7 6 6 6 5 5 5 5 5 5 5 5 5 5 5 6 7 6 6 6 6 6 6 5 5 5 6 6 6 6 6 5 8 9 7 8 8 9 11 10 10 9 10 9 9 10 9 7 9 8 6 6 6 6 5 4 5 7 5 4 5 5 5 5 6 5 5 6 7 7 8 8 9 9 9 9 9
9 9 6 9 8 9 8 8 7 6 6 6 7 5 5 5 5 4 5 5 6 6 6 6 7 7 6 6 6 6 6 6 6 6 6 6 7 7 6 7 6 9 9 8 8 8 10 13 12 10 10 10 10 9 8 8 10 7 7 6 5 6 5 6 6 6 5 4 4 5 7 7 5 5 6 7 7 7 7 8 8 8 8 9 8
10 10 9 9 9 9 9 8 7 7 6 6 6 6 5 5 5 4 5 5 6 7 6 6 6 6 6 6 6 6 6 6 6 6 6 7 7 7 7 7 8 7 6 9 9 8 10 11 13 13 11 10 9 9 8 8 10 8 8 8 7 6 6 7 6 5 5 4 4 5 7 6 7 7 7 7 7 7 7 7 8 8 8 8 8
11 10 11 9 7 8 9 8 7 7 6 6 6 6 6 6 5 5 5 6 7 8 7 7 7 7 6 6 6 6 6 7 7 7 7 8 8 8 8 7 8 8 8 7 8 10 10 11 13 14 13 10 9 9 9 8 10 9 8 9 9 9 8 8 7 5 6 5 6 6 6 6 7 7 7 7 7 7 7 7 8 8 7 7 7
12 11 10 10 9 9 9 8 8 6 6 7 6 7 6 6 6 7 7 8 8 8 7 7 7 7 6 6 6 5 6 7 7 8 8 7 8 8 8 8 8 7 7 8 9 7 11 11 11 11 12 12 12 11 10 10 10 11 11 10 10 9 9 10 7 6 7 7 7 7 8 8 8 8 8 8 8 8 7 7 7 7 7 7 7
12 12 10 10 10 10 8 8 8 8 7 7 7 7 7 6 7 8 8 9 9 10 9 8 7 7 6 7 6 6 7 7 8 8 7 8 9 9 8 8 8 7 7 7 9 9 9 12 10 11 11 10 10 10 11 11 11 11 11 10 11 10 10 10 8 7 8 10 9 8 8 8 9 9 9 8 8 8 8 8 8 7 7 7 7
13 12 11 11 10 9 9 10 9 9 9 8 8 8 8 8 8 8 8 9 9 9 9 8 6 6 6 7 7 6 7 7 7 7 7 8 8 9 9 8 8 8 7 7 8 9 8 9 13 12 11 10 11 12 12 11 11 10 10 10 10 11 12 12 9 9 10 10 11 10 10 9 9 9 9 9 9 9 9 9 8 8 7 7 7
14 13 11 11 11 9 9 10 10 9 9 9 9 9 9 9 10 10 9 9 9 9 8 7 6 6 6 7 7 8 7 7 7 7 8 9 9 9 7 8 8 8 8 7 7 7 8 7 6 8 9 13 11 11 12 12 8 6 8 11 12 11 14 13 9 8 10 11 12 10 10 10 10 10 10 10 10 10 10 9 9 9 8 8 8
13 14 13 12 11 11 11 10 10 10 10 10 10 10 11 11 11 11 12 9 8 8 8 8 8 9 9 9 9 9 10 9 9 9 9 9 9 8 9 8 8 8 8 7 6 7 7 7 7 7 8 10 15 12 10 6 5 7 8 10 12 12 14 15 11 10 11 12 12 11 11 11 11 11 11 11 11 11 10 10 9 9 9 8 8
13 13 14 11 11 11 11 11 11 11 11 11 11 11 11 11 10 10 11 12 10 7 7 6 7 8 7 10 9 9 10 10 11 10 9 8 7 8 7 7 7 7 7 6 7 6 6 7 7 7 8 8 9 12 9 8 7 8 9 10 11 12 12 15 14 11 12 13 13 13 12 13 12 12 12 12 12 12 11 11 10 10 10 9 9
12 13 13 13 12 12 12 12 12 11 11 11 11 11 12 11 10 9 8 10 11 8 7 5 6 6 5 4 5 7 9 9 10 10 9 7 7 6 6 7 8 7 6 6 6 6 7 7 8 9 8 7 7 6 7 7 7 10 10 10 11 11 11 13 16 12 13 14 14 14 13 13 14 13 13 14 13 13 12 12 11 11 11 10 10
14 13 13 14 14 12 12 11 12 11 10 12 12 12 11 13 13 11 10 8 8 8 8 9 6 4 2 3 7 5 4 5 7 9 8 7 6 6 6 7 8 6 6 6 6 6 7 8 9 9 8 8 7 7 7 8 7 10 10 9 10 11 13 12 14 13 14 14 15 15 14 14 14 15 15 14 14 14 13 13 12 12 12 11 11
14 15 13 14 15 14 12 12 12 12 12 11 12 13 12 13 12 13 11 10 6 8 9 11 9 5 5 6 2 1 8 6 4 4 5 5 5 6 5 6 5 6 5 6 7 7 7 8 10 9 8 8 8 8 8 7 9 8 8 8 7 11 13 12 12 16 14 15 15 15 16 15 16 16 16 16 15 15 14 14 14 13 13 13 13
15 16 15 15 15 14 14 13 13 13 12 12 12 13 13 13 13 12 13 12 11 8 9 11 13 11 7 3 3 5 7 5 1 6 6 4 6 6 5 5 5 5 5 6 6 6 7 8 8 8 8 8 9 9 8 7 6 7 7 9 10 11 12 12 12 12 16 16 16 16 16 16 16 16 17 17 17 16 15 15 15 14 14 14 13
14 16 16 14 15 15 15 14 14 13 13 12 12 12 13 14 13 13 13 14 11 10 8 9 11 13 12 10 8 8 5 2 0 5 4 6 3 4 5 4 4 4 4 5 6 7 7 8 8 8 8 9 9 8 8 7 6 6 6 7 12 12 12 13 14 12 15 17 17 17 17 18 17 18 18 18 18 17 17 16 16 15 15 14 13
16 16 16 15 15 15 15 15 14 14 13 13 13 14 13 13 12 13 13 11 12 11 12 8 8 10 12 13 12 10 6 6 7 5 10 4 5 5 4 5 4 4 5 6 7 7 7 8 8 8 8 8 8 8 8 8 9 8 9 8 11 13 14 14 14 14 14 17 19 19 19 18 18 18 19 19 18 17 17 17 16 16 15 14 14
15 16 17 15 14 16 16 14 15 15 13 13 14 13 12 12 12 14 12 11 13 12 11 11 9 8 10 13 13 12 12 12 12 10 9 9 6 4 2 4 4 5 6 7 8 8 9 8 8 7 7 8 8 8 8 8 7 8 8 11 12 14 15 16 16 15 14 13 14 18 21 20 19 19 20 20 20 18 18 17 17 16 16 16 15
16 16 16 17 13 15 16 16 16 16 13 14 14 15 16 15 13 13 14 13 13 12 11 11 11 12 9 10 11 12 10 12 12 11 11 11 13 12 9 2 3 4 6 8 9 9 8 8 7 7 7 8 8 8 8 8 7 8 8 13 15 15 16 16 17 16 15 14 15 14 17 21 19 20 20 20 20 19 18 17 18 17 17 16 15
15 16 16 17 17 16 16 18 17 16 13 15 15 15 15 14 14 14 14 14 12 13 14 12 11 11 11 9 9 10 10 10 12 9 9 11 13 11 9 10 10 8 8 9 11 10 8 8 7 8 8 7 7 8 8 9 8 7 10 13 15 16 16 16 17 18 18 16 14 14 13 16 20 20 20 19 19 19 18 17 18 18 17 16 15
12 14 16 17 17 15 16 17 16 14 14 15 15 15 14 14 14 14 14 15 13 14 12 14 12 12 13 12 11 10 11 11 10 9 11 9 10 12 11 10 12 11 11 11 10 9 8 7 7 8 8 7 7 8 8 9 10 10 12 13 13 13 15 16 17 18 19 18 17 14 15 15 16 20 21 20 20 19 18 19 18 18 17 17 17
12 13 15 18 16 16 16 16 15 16 16 15 15 14 13 13 13 12 12 15 15 13 14 14 16 13 14 12 12 12 11 11 9 9 9 10 10 9 8 8 11 12 8 6 6 7 8 8 8 7 7 7 8 8 8 9 10 14 11 12 12 13 15 17 18 18 19 19 18 17 16 16 17 18 18 18 19 19 19 18 18 18 18 18 18
13 14 16 19 17 16 17 16 16 16 16 15 15 15 14 13 14 14 14 14 13 15 14 16 15 15 13 13 12 12 12 10 9 9 9 8 8 9 10 9 10 5 5 5 7 7 8 8 8 7 8 8 8 8 8 8 9 12 14 10 15 15 16 18 18 18 18 18 18 18 17 18 17 18 17 16 17 19 19 18 18 18 19 18 19
14 15 14 15 16 17 16 17 16 16 16 16 14 14 15 14 14 15 14 13 13 16 15 15 15 15 13 11 12 12 11 9 10 9 10 9 10 9 9 5 7 8 3 3 6 8 8 8 7 7 7 8 8 8 8 9 9 11 14 10 12 15 16 16 18 17 18 19 19 18 18 17 17 17 16 16 17 19 20 20 20 20 20 20 20
13 13 12 14 17 16 16 16 16 16 15 15 14 15 14 14 13 14 13 13 14 15 15 16 14 14 13 12 9 10 10 8 9 11 10 11 11 10 10 11 8 6 7 7 7 8 11 7 6 8 8 7 8 8 8 8 10 10 12 10 9 14 16 15 16 17 17 18 20 20 19 17 17 18 18 16 16 17 20 21 21 21 21 21 20
10 11 13 13 14 15 16 16 16 16 15 15 15 14 15 15 14 13 15 10 13 15 15 14 15 14 15 13 12 13 11 10 11 10 9 10 11 11 11 10 11 11 6 7 6 7 8 9 7 8 8 8 7 7 6 7 8 10 11 8 9 9 14 14 16 16 17 17 17 19 18 18 19 19 20 20 19 17 17 18 20 20 19 18 20
10 11 11 13 12 13 14 16 16 16 16 15 15 15 15 14 14 15 15 13 13 16 14 13 14 13 13 15 13 11 10 10 10 11 12 11 11 10 11 9 8 10 8 4 7 6 6 9 7 5 8 7 6 6 6 8 8 8 8 9 9 9 12 15 16 17 18 18 16 17 19 19 18 18 18 18 19 17 17 18 18 18 18 17 19
10 8 11 12 13 14 13 15 15 16 16 15 15 16 15 14 15 15 14 14 14 13 13 13 13 12 12 11 11 9 10 9 11 12 11 10 10 11 9 8 8 12 10 9 8 6 6 6 8 7 5 6 5 4 5 6 7 9 8 8 9 10 10 12 15 16 17 17 16 16 17 18 19 17 16 17 18 18 18 18 18 18 19 20 20
11 10 11 12 12 12 13 15 15 16 16 15 15 15 16 14 14 13 14 14 13 13 13 12 11 11 12 13 11 10 11 10 10 9 9 9 9 8 8 8 9 10 10 8 10 4 5 8 7 7 4 4 3 3 3 3 4 8 7 7 8 7 5 8 11 13 14 14 15 15 15 17 20 20 19 19 19 19 18 18 18 20 20 21 22
11 12 12 13 13 14 14 16 15 15 15 16 15 15 15 15 14 13 13 14 14 13 12 10 10 11 12 12 11 11 10 10 11 9 9 9 8 8 8 9 9 8 8 9 10 10 5 7 9 3 2 1 3 3 3 2 3 7 7 6 3 1 3 5 8 11 11 12 15 15 15 17 18 20 22 21 21 21 20 19 19 20 21 22 21
12 12 13 14 14 14 14 15 17 16 16 16 15 14 15 15 14 13 13 15 15 13 11 12 12 12 11 12 11 11 12 10 9 9 10 11 10 9 8 8 8 8 9 8 10 10 5 1 2 3 2 1 2 3 3 4 3 3 4 2 0 3 4 5 5 9 12 11 12 14 14 15 16 17 17 18 18 19 19 19 19 19 19 17 16
12 13 14 13 13 15 14 16 17 17 16 16 16 15 15 15 15 12 13 14 14 14 11 12 13 11 12 12 12 12 11 13 10 9 9 9 8 8 9 9 9 9 9 9 9 8 9 2 3 1 1 3 4 4 4 2 4 4 5 3 3 5 6 6 6 6 12 12 14 13 12 11 12 11 11 11 12 14 15 17 16 14 12 11 10
11 13 14 14 14 15 15 18 18 15 17 16 16 16 16 16 16 14 12 13 13 14 13 13 11 11 12 12 11 11 9 11 10 8 8 9 8 8 9 8 9 9 8 9 8 8 7 7 5 4 3 4 4 2 4 3 4 4 5 5 5 5 5 5 5 5 8 10 10 11 11 11 8 7 9 9 9 9 10 12 12 12 10 9 9
11 12 13 14 15 15 15 16 15 16 17 16 16 16 17 16 15 15 13 13 13 12 13 12 12 11 12 11 11 10 10 11 10 8 7 7 8 8 8 7 7 8 6 5 7 6 5 6 4 8 3 3 3 2 2 2 3 3 5 4 4 5 4 4 5 5 5 6 6 7 9 9 9 8 8 8 8 9 10 11 10 9 10 10 10
12 12 12 15 18 16 15 15 15 17 17 17 16 15 16 15 14 14 13 13 13 12 12 11 11 12 11 12 11 10 10 11 9 9 7 9 7 7 9 8 8 7 6 6 6 6 6 6 4 2 2 2 2 2 2 3 1 1 2 4 5 5 6 6 6 6 1 4 6 6 6 7 9 9 10 10 10 10 10 10 9 9 10 10 11
14 16 17 16 16 19 18 14 17 18 17 16 16 14 13 12 12 13 12 12 12 12 12 11 11 11 11 11 10 10 11 11 10 8 9 10 9 8 9 8 7 6 6 6 6 6 7 7 8 4 1 4 2 2 1 2 3 1 2 4 4 4 5 6 6 3 1 2 2 1 1 4 6 8 8 9 9 9 9 10 11 11 11 11 11
16 17 16 17 15 16 17 17 18 17 16 14 13 12 12 12 12 12 11 11 11 11 11 12 11 11 11 11 11 11 11 10 9 9 9 10 9 9 10 9 7 7 7 6 6 7 7 7 5 2 3 1 2 3 2 2 2 2 4 3 4 4 3 4 4 1 1 1 2 1 2 3 4 4 5 7 9 10 12 11 12 13 12 12 12
17 17 16 16 15 14 16 16 16 13 14 12 12 12 12 12 12 12 11 11 11 11 11 10 9 10 11 11 11 11 11 10 10 9 9 9 7 8 7 7 7 7 7 6 6 6 6 6 7 5 2 4 2 3 3 3 1 2 5 5 6 4 2 4 4 3 2 2 1 2 3 3 5 7 9 9 10 12 12 12 14 14 14 12 11
14 16 15 15 13 12 12 12 13 12 12 13 12 13 13 13 12 12 12 12 11 11 10 10 10 10 10 10 10 9 11 12 13 11 11 10 8 8 7 7 7 7 7 6 7 7 6 6 5 3 4 3 4 6 5 5 8 7 5 6 6 5 2 1 3 3 2 2 2 3 3 4 3 3 2 3 5 8 10 13 12 13 13 12 13
14 13 15 14 13 14 13 12 12 12 12 12 14 19 16 12 12 11 11 11 11 10 9 9 9 10 10 9 9 13 14 14 14 15 14 14 13 10 9 9 9 8 8 7 7 7 7 7 7 7 6 7 7 8 8 7 5 4 4 4 3 2 2 1 2 2 2 3 2 2 2 3 3 2 2 3 3 4 5 5 6 7 9 12 13
13 13 12 13 13 13 14 14 14 13 12 12 18 18 19 19 13 11 11 10 9 10 11 11 10 9 8 8 7 10 11 10 12 15 14 14 15 14 12 12 11 11 9 8 8 7 7 8 7 6 7 8 8 7 8 6 6 6 5 5 3 2 1 0 1 1 0 1 0 1 0 3 1 1 2 3 2 3 3 4 5 5 8 10 10
12 11 12 12 13 12 12 12 13 13 13 15 17 18 19 19 17 12 10 10 10 10 10 10 10 8 8 8 7 6 7 9 10 10 12 13 14 14 13 11 12 13 12 10 9 6 5 5 5 9 8 9 8 8 7 6 5 5 4 4 4 3 2 2 1 1 1 1 1 0 2 3 1 1 3 3 2 2 3 5 8 9 10 10 10
10 12 13 13 13 11 12 13 13 13 12 16 18 18 19 19 19 15 9 10 10 10 10 9 9 8 7 8 8 7 7 11 10 8 8 8 9 12 11 11 10 12 12 13 12 9 10 9 8 9 11 9 9 8 7 6 7 7 6 4 5 4 2 2 2 3 2 2 1 1 2 1 2 3 2 1 1 2 3 3 5 7 8 9 9
10 11 10 12 11 11 12 13 12 12 12 14 18 18 18 18 18 16 10 10 10 10 10 9 8 8 9 9 8 8 6 7 6 7 7 6 7 7 7 7 7 9 11 13 13 12 8 10 10 11 10 6 7 5 7 9 10 7 7 5 7 4 4 3 5 5 3 1 1 0 3 1 1 1 2 0 0 2 1 4 6 6 7 7 8
10 11 10 10 11 10 11 10 10 11 11 15 17 18 17 17 17 15 9 8 8 9 9 9 10 10 9 9 9 9 8 8 7 9 8 8 7 7 6 6 5 5 5 6 7 7 7 6 7 7 6 6 5 7 9 7 7 6 6 6 8 4 5 5 3 5 3 1 1 1 2 1 1 1 1 0 1 2 1 5 8 7 6 6 6
7 6 7 8 10 10 9 9 10 12 10 14 15 16 17 16 17 11 9 9 9 8 8 8 8 8 8 9 9 9 8 8 10 13 11 8 7 6 6 4 4 3 2 3 3 2 3 4 4 5 5 6 6 7 8 7 6 7 7 6 7 5 4 2 2 3 2 2 1 2 2 1 1 1 1 0 1 0 2 2 7 8 7 7 7
9 9 10 10 9 10 11 11 12 11 8 11 15 16 16 17 13 10 10 8 8 9 8 7 8 8 8 8 8 8 8 8 10 14 12 11 6 8 7 6 6 5 4 4 7 8 8 8 8 8 8 9 10 11 12 12 9 9 7 6 4 4 4 3 2 3 2 4 2 2 2 3 1 0 1 0 1 1 1 3 3 6 7 7 7
9 9 7 7 7 9 10 11 12 11 8 10 15 15 16 17 15 11 9 9 8 8 7 7 7 7 8 11 10 9 9 8 11 13 13 11 8 8 8 8 8 6 5 6 6 7 11 12 12 11 10 10 12 12 12 12 11 7 6 6 6 5 3 3 3 2 2 3 3 4 3 2 1 1 1 1 2 2 2 2 2 3 5 7 10
8 5 6 7 8 8 9 11 11 12 9 9 14 15 16 17 15 10 10 9 9 8 8 7 5 5 6 7 11 9 9 10 14 14 16 13 9 9 10 10 10 9 9 10 10 9 7 8 6 7 8 9 8 8 9 10 9 7 5 6 6 4 4 3 3 2 2 2 3 4 4 2 2 2 0 1 2 3 1 1 1 2 3 3 2
Wind_Direction
213 212 209 209 211 214 211 213 210 213 208 218 227 236 238 240 238 237 235 238 231 231 236 243 246 244 246 250 252 257 262 263 262 256 261 263 255 205 186 225 253 260 269 277 283 289 291 304 311 308 307 299 276 281 296 256 281 295 289 275 279 297 324 261 254 109 113 126 120 114 125 128 115 133 126 113 115 106 104 106 102 99 97 95 93
217 217 212 211 213 215 214 216 216 214 210 220 220 229 239 240 248 252 250 247 246 244 243 246 243 246 245 245 250 257 260 257 256 252 251 253 246 246 181 229 237 245 256 268 272 271 279 287 292 294 297 301 279 263 286 289 284 293 288 245 252 187 172 230 141 137 137 140 131 119 128 136 132 128 140 138 118 113 114 109 107 106 103 100 99
220 217 214 215 213 214 217 215 216 216 214 223 222 224 228 235 239 243 245 248 249 249 246 247 244 240 233 235 245 250 255 254 252 250 254 250 251 256 216 200 229 234 250 253 265 269 273 283 282 283 284 292 294 276 270 290 295 278 271 251 225 200 195 194 151 154 141 132 147 149 146 161 131 120 122 124 125 125 122 117 116 113 112 109 108
221 220 220 216 216 215 217 217 219 218 216 221 221 219 226 232 236 244 254 260 263 254 244 251 248 243 238 231 238 245 249 251 252 249 251 257 255 252 250 226 200 227 228 245 254 260 263 264 266 271 277 273 287 284 281 286 273 259 253 255 232 185 179 203 176 180 168 170 174 186 182 138 128 150 139 135 133 136 133 128 124 123 122 121 118
221 220 213 222 220 219 219 219 219 219 216 218 224 224 225 228 232 233 241 246 255 259 252 248 253 248 241 240 240 242 249 254 253 252 251 250 253 250 252 253 249 192 217 230 236 252 255 262 264 262 266 269 273 282 286 286 269 274 260 233 229 213 183 184 186 184 176 168 174 205 148 158 157 153 158 151 147 144 141 139 135 134 132 129 129
219 222 219 223 225 225 223 219 215 216 217 216 221 222 224 224 229 227 233 241 248 256 251 245 242 244 242 241 239 247 250 247 252 254 252 252 253 251 246 252 258 260 217 196 224 232 244 249 258 264 264 256 260 264 276 280 275 271 261 247 228 227 208 183 176 199 207 211 171 195 180 187 182 165 164 157 156 155 153 149 148 144 142 138 135
218 222 224 223 218 224 225 224 215 209 214 216 219 221 224 229 228 229 235 238 249 257 255 255 253 247 244 241 239 242 244 250 255 252 249 254 253 253 250 248 255 260 257 255 190 214 235 244 248 254 255 241 239 252 271 275 272 275 259 251 243 233 217 195 185 194 233 204 200 193 201 192 174 175 173 169 164 168 165 163 159 157 152 147 141
218 218 225 223 223 226 226 223 210 204 212 217 217 221 222 229 230 234 245 248 252 255 251 252 252 252 248 247 248 242 249 253 251 250 252 249 248 247 247 247 245 246 251 253 263 233 203 228 240 251 257 250 258 256 257 275 275 276 277 261 243 238 218 208 208 221 225 215 213 208 201 189 190 176 182 180 179 177 174 175 173 167 162 156 154
219 217 221 224 225 227 223 215 213 216 217 216 216 220 223 222 233 231 240 256 255 258 258 257 255 255 250 246 243 239 245 249 248 250 246 243 246 247 245 244 238 236 238 244 253 260 195 217 222 236 251 255 247 241 252 266 271 275 282 282 262 236 216 207 211 218 231 224 214 219 212 202 196 187 191 189 187 189 184 187 185 180 172 166 163
220 219 221 224 227 224 222 218 217 222 224 221 223 221 223 226 235 233 237 245 253 257 260 260 256 258 258 253 246 237 240 243 245 246 245 245 243 242 243 242 236 228 232 231 239 244 254 203 218 225 219 212 221 234 246 257 265 274 286 281 285 241 209 210 218 227 232 228 218 215 219 211 204 201 196 198 198 198 197 195 194 191 186 178 173
220 219 221 222 224 223 220 219 217 220 224 225 225 225 225 227 233 240 235 242 252 255 258 266 271 271 266 261 253 244 244 240 242 241 239 239 242 245 245 241 240 232 232 229 229 237 234 247 211 217 216 210 216 224 237 249 258 262 267 278 279 264 222 217 221 224 231 224 218 213 221 218 211 209 205 201 205 207 202 204 205 201 196 192 186
215 217 218 220 220 222 225 219 220 220 222 223 222 223 222 222 230 236 242 237 242 254 255 261 267 270 269 263 253 248 241 239 236 238 238 237 237 237 237 238 234 234 227 220 230 224 229 231 234 219 238 196 210 220 222 225 227 242 256 265 267 267 239 221 218 227 225 224 223 216 217 217 214 212 213 210 210 210 211 209 213 212 207 202 200
210 212 215 213 215 219 221 221 218 218 221 225 223 223 225 227 230 229 235 241 243 230 246 249 261 271 255 250 247 235 236 234 238 237 234 234 234 235 236 234 232 232 222 223 222 217 223 223 228 232 236 245 206 216 207 206 211 232 247 256 258 261 254 232 224 226 211 221 221 216 215 217 217 217 218 217 214 217 216 217 216 218 217 215 210
207 207 211 212 211 217 218 218 214 217 222 226 223 224 227 230 231 234 218 234 244 234 227 197 238 243 271 271 252 235 216 220 229 235 233 230 228 230 237 236 235 232 227 226 220 217 218 225 227 223 220 217 221 205 202 206 212 223 237 245 253 258 258 241 235 215 214 219 223 219 216 218 221 221 220 222 221 219 221 222 223 223 222 223 221
213 209 215 216 215 213 216 216 213 214 215 222 224 223 224 227 226 228 229 224 238 237 224 208 254 211 239 297 272 277 188 212 222 236 229 228 223 230 235 238 237 228 232 232 230 218 218 223 225 221 212 211 214 215 213 208 205 186 214 234 249 257 257 264 235 217 210 218 223 223 221 220 222 225 224 225 224 226 226 226 227 228 228 229 230
215 212 215 217 216 216 216 214 212 211 214 218 219 222 221 223 223 225 230 236 197 227 219 222 231 192 237 216 276 288 284 257 215 210 214 221 219 232 228 240 231 222 223 231 231 227 223 219 220 218 215 213 213 215 220 216 186 184 203 221 236 249 257 258 264 222 215 214 220 225 225 223 223 224 227 228 226 229 231 230 230 231 233 234 235
216 215 214 217 216 217 218 217 215 213 213 220 224 224 221 220 218 218 217 226 234 229 219 215 225 226 245 210 222 237 240 261 109 249 174 196 210 216 229 236 232 216 219 232 234 233 233 228 225 221 217 215 216 217 220 216 181 202 202 211 224 238 248 254 258 242 217 219 215 223 227 227 226 226 228 229 232 232 232 234 235 235 236 239 241
216 217 215 215 217 218 218 219 219 217 217 223 228 226 222 220 216 215 218 220 230 238 229 190 225 231 236 247 259 278 303 118 68 269 152 221 175 185 220 220 231 220 222 235 231 232 230 234 228 221 215 216 217 216 218 210 195 196 212 203 212 226 237 245 249 253 237 223 216 212 222 228 228 228 230 232 233 233 235 234 237 238 239 241 245
216 216 217 215 216 217 217 219 220 221 219 223 227 226 225 221 217 213 218 216 217 230 235 217 203 231 232 239 251 256 259 257 250 266 274 207 189 191 206 209 218 225 239 239 233 232 232 230 229 221 216 215 217 216 216 216 207 212 210 210 206 220 229 235 241 246 247 237 230 223 218 224 230 232 233 235 236 236 237 239 237 240 241 243 246
217 218 219 216 212 216 217 217 219 221 218 220 226 225 226 221 211 214 215 215 213 219 226 233 214 227 220 235 240 247 252 250 252 259 271 276 247 167 192 236 219 222 235 250 244 235 236 227 228 219 220 218 217 218 216 213 206 208 214 211 214 220 227 229 231 235 245 250 257 236 223 223 228 233 234 236 237 238 239 240 242 242 244 245 247
219 219 218 217 209 213 215 215 217 219 217 224 225 227 225 222 213 212 213 216 216 219 226 231 229 235 224 229 236 241 241 241 244 238 243 249 256 260 259 181 277 253 240 239 241 240 235 232 224 218 220 220 215 215 215 213 209 208 212 205 214 221 227 229 227 228 233 242 246 257 238 223 228 229 234 237 239 241 242 242 244 245 246 250 252
217 217 216 216 214 212 214 216 217 218 217 222 224 224 224 222 219 215 213 213 215 220 225 229 234 234 234 233 230 232 235 239 234 223 234 227 249 254 247 252 256 246 220 230 230 230 226 227 222 218 222 220 214 212 212 212 212 209 211 203 211 221 227 230 230 227 228 232 240 242 255 241 227 236 236 235 238 241 243 245 245 247 248 250 253
210 215 215 213 214 212 213 216 217 217 217 220 222 222 221 221 221 219 217 214 215 219 221 229 234 236 233 231 233 229 226 226 228 217 222 229 234 245 250 245 253 263 250 237 230 226 226 224 223 223 221 220 219 216 211 212 213 218 216 204 209 218 228 233 232 229 227 229 232 238 243 249 249 235 232 235 240 243 243 245 250 253 253 253 251
201 212 213 213 212 213 212 215 216 216 218 220 222 222 221 219 221 220 218 216 219 222 227 228 227 232 232 231 235 237 236 235 236 227 219 229 231 241 238 248 240 237 250 255 222 236 229 225 223 225 220 219 222 217 218 219 219 216 213 210 208 213 223 233 237 233 230 229 229 232 238 243 248 252 250 244 242 244 246 247 248 252 255 254 252
204 206 214 210 209 210 210 212 214 215 217 217 221 220 220 219 220 219 219 215 216 220 224 226 223 223 226 230 234 235 236 234 233 233 235 232 230 247 255 244 254 250 230 217 241 228 234 233 222 217 217 218 219 215 216 214 223 202 205 209 209 218 222 227 234 237 232 230 231 231 233 237 242 245 245 245 246 248 250 252 252 252 253 255 258
201 203 201 200 208 211 210 212 214 215 215 218 218 218 218 219 221 221 219 220 219 220 224 225 225 225 225 228 227 230 235 230 231 233 232 235 241 243 250 237 232 249 209 190 235 257 250 229 221 222 216 217 217 218 215 219 226 206 192 209 206 215 222 224 226 234 235 230 229 230 231 232 236 238 241 244 247 251 255 259 261 259 259 257 257
202 202 192 193 202 210 212 213 212 213 213 213 215 216 215 218 222 222 222 221 221 223 225 224 224 223 222 224 227 229 230 224 228 234 233 240 243 246 245 252 244 219 235 239 244 224 254 263 211 216 215 216 215 216 216 218 222 200 182 208 227 214 221 224 226 228 237 237 233 234 235 234 234 237 236 238 245 253 258 261 261 261 261 260 260
202 192 187 186 193 204 212 214 213 213 214 213 212 213 213 215 219 220 222 216 220 221 225 224 225 223 225 226 227 234 230 228 229 231 230 236 242 244 246 245 253 259 229 242 221 239 235 249 239 216 217 211 213 214 208 222 234 195 175 207 221 224 211 219 225 227 232 240 244 239 236 238 241 243 246 247 247 247 252 258 260 263 264 264 265
204 189 184 188 193 197 208 215 215 214 214 214 212 212 212 214 217 218 220 216 218 224 222 222 226 224 227 229 230 232 229 224 226 229 235 237 237 242 243 242 243 247 250 231 231 227 227 214 242 230 201 207 208 206 214 218 215 188 198 209 218 230 206 202 216 222 226 231 239 243 241 236 237 243 249 252 252 253 250 247 248 250 256 259 262
196 176 185 189 195 194 206 216 215 214 214 213 212 212 212 215 217 218 218 215 218 222 223 223 223 222 224 224 225 223 225 218 228 232 232 231 237 239 236 231 224 240 244 247 257 184 226 202 218 245 174 199 197 195 207 220 185 181 209 213 221 227 220 203 213 222 225 228 231 236 239 240 241 243 245 248 249 250 250 251 251 251 252 255 257
192 181 190 195 195 194 205 219 217 215 214 212 211 211 211 215 216 216 214 214 216 219 219 218 219 216 220 223 220 219 223 220 221 224 226 224 228 227 230 225 228 228 235 245 261 208 209 256 240 230 232 168 180 192 199 233 180 186 211 227 232 239 237 219 215 224 230 231 232 235 241 243 243 240 240 242 245 249 251 253 252 253 255 256 256
192 189 192 197 195 197 205 216 216 215 213 212 210 211 211 215 214 213 213 211 215 218 217 212 214 216 220 222 220 220 218 223 226 221 220 221 220 224 225 227 229 223 224 235 243 254 172 232 260 262 230 154 159 195 224 212 151 163 230 233 243 108 211 244 218 225 234 237 234 234 237 240 241 241 242 242 241 243 247 251 254 256 255 256 259
186 188 193 196 196 198 200 213 217 214 212 211 210 210 211 214 215 214 212 212 215 219 214 214 215 214 215 220 217 215 216 220 222 222 225 226 223 221 223 225 226 220 217 222 239 252 235 237 270 240 64 101 189 193 222 223 224 227 216 232 51 215 207 223 225 210 221 232 236 232 232 236 239 241 244 246 247 247 249 253 257 259 260 262 264
187 190 195 195 198 196 200 211 217 216 214 213 209 208 210 213 214 213 213 212 214 217 211 213 211 211 218 219 218 217 217 226 223 218 217 219 217 218 219 218 223 223 208 218 229 235 243 148 222 154 168 172 228 166 196 207 231 208 212 195 177 179 213 217 222 218 210 219 228 236 240 243 245 249 252 254 252 254 260 260 261 264 275 289 298
193 196 196 196 193 195 202 214 214 213 217 214 210 209 211 212 212 213 211 211 212 211 210 211 208 210 216 218 219 216 218 223 221 220 215 219 217 220 225 220 225 223 213 211 214 226 230 234 214 215 182 183 209 151 185 221 230 212 218 211 210 213 216 227 234 246 219 220 228 238 246 251 253 251 251 255 259 263 268 274 280 288 297 299 300
194 197 198 199 200 194 199 208 207 213 217 214 211 210 212 211 211 213 209 210 213 209 210 210 209 208 213 216 218 214 216 221 220 215 215 217 219 220 224 225 220 223 210 199 215 225 217 235 168 227 177 165 193 106 119 159 204 225 243 246 237 247 247 242 251 250 226 214 236 242 245 250 256 255 253 257 262 265 269 270 275 279 278 276 273
198 199 202 210 211 200 201 203 205 214 215 212 210 211 213 213 213 213 211 210 211 210 209 211 209 207 209 216 215 210 211 219 217 213 208 215 216 217 222 218 211 210 205 199 208 211 225 231 222 158 92 92 89 118 174 192 197 227 280 262 261 258 259 257 256 254 247 194 231 239 247 256 263 267 266 267 268 269 272 276 277 272 265 258 253
204 213 209 205 207 209 209 204 213 214 212 209 210 211 210 210 212 213 211 209 211 211 210 210 210 208 210 212 210 206 210 214 215 207 208 215 217 215 215 214 206 198 203 204 204 216 223 226 228 191 83 161 141 130 103 143 145 169 254 251 256 253 250 257 248 235 213 210 222 218 239 268 272 279 286 280 273 267 263 263 263 260 254 249 246
208 211 208 207 203 204 209 210 212 211 208 204 207 208 209 208 211 211 211 210 211 212 213 210 206 207 210 211 209 205 210 212 211 207 207 214 213 212 209 208 199 190 199 205 206 218 217 226 238 206 155 15 151 163 140 142 122 160 216 246 249 196 203 234 260 185 157 235 246 209 238 267 282 278 270 267 267 266 264 261 259 257 254 251 248
210 209 205 205 204 202 205 207 209 204 203 200 204 209 209 210 209 212 210 210 211 211 211 210 209 209 211 211 209 207 208 208 208 211 207 207 202 210 205 202 193 191 199 202 208 208 211 214 219 193 185 154 94 86 100 119 127 225 203 206 236 237 209 184 216 221 160 189 211 162 176 225 254 253 255 261 260 259 260 263 258 255 255 255 251
208 209 207 204 199 198 204 204 205 200 201 202 204 205 207 208 208 207 209 210 209 209 208 211 211 210 211 210 209 210 205 203 203 212 214 205 197 200 195 193 198 193 196 200 203 202 209 203 208 174 160 172 184 158 161 181 198 207 156 181 233 249 249 146 148 188 171 183 211 206 192 178 220 233 225 247 247 244 252 248 258 261 259 259 260
208 207 207 203 199 199 201 205 203 201 204 207 204 203 203 205 204 207 208 209 207 205 203 206 210 208 206 204 207 203 200 202 206 212 212 205 201 202 200 190 194 187 195 200 200 200 198 197 204 183 185 209 195 196 197 206 185 127 134 155 197 189 152 208 154 103 158 192 228 231 171 152 219 253 221 245 245 228 262 262 260 263 267 267 261
207 206 205 203 201 201 202 201 202 203 206 207 203 200 202 202 201 204 205 205 206 207 206 205 208 204 203 204 203 204 207 208 210 211 210 206 206 208 205 194 190 186 190 194 205 198 198 205 196 183 199 205 205 197 204 180 172 171 165 160 174 148 185 191 162 119 1 216 192 329 84 113 184 262 264 259 261 273 289 281 311 317 298 289 284
208 203 205 205 204 203 203 204 204 205 209 206 199 199 200 203 203 203 202 204 202 206 207 204 202 196 200 201 207 203 205 202 200 202 210 211 210 212 214 206 199 200 194 185 193 202 199 200 190 201 192 205 198 194 191 167 150 137 130 136 155 171 157 167 167 183 89 302 126 16 296 133 199 260 283 278 293 308 301 305 297 288 286 283 279
197 199 205 204 206 202 201 202 207 207 211 204 200 199 202 203 203 202 202 200 198 202 200 201 197 194 193 197 202 204 202 197 197 198 194 206 214 216 218 214 211 204 204 203 197 195 196 199 193 198 200 194 188 199 174 156 137 147 151 159 174 167 153 160 167 128 146 208 144 204 264 242 152 272 276 278 333 305 285 257 284 294 296 295 292
203 207 206 206 204 202 203 204 207 210 212 204 200 201 202 200 199 198 205 198 201 199 196 193 194 192 191 194 197 199 203 196 195 190 187 190 171 176 195 190 202 214 214 211 210 212 200 200 198 210 208 180 183 159 147 143 148 164 169 177 167 167 167 137 89 95 119 219 197 293 280 230 112 258 259 172 326 286 277 18 356 341 327 322 313
201 205 205 206 207 205 206 208 209 213 217 203 200 200 200 197 195 194 204 199 200 201 196 192 193 195 195 197 195 195 190 194 191 186 184 182 174 184 185 193 197 196 194 202 203 199 198 210 206 214 170 173 139 138 143 166 158 158 164 161 163 145 103 103 97 109 124 148 159 174 263 127 134 246 248 268 307 303 57 58 35 12 5 357 351
208 203 210 207 208 208 208 207 211 219 218 200 198 199 197 196 190 193 200 197 199 198 195 193 196 196 194 193 195 195 188 189 192 190 190 174 173 171 177 170 147 118 88 32 22 35 169 172 170 163 160 150 142 143 149 138 108 103 90 88 86 101 123 138 174 154 163 139 190 208 233 262 118 271 280 261 294 314 59 40 45 29 30 30 27
207 209 209 206 207 204 203 206 210 220 216 197 196 197 196 192 186 196 194 193 194 193 197 192 192 193 195 194 191 191 184 193 187 188 184 166 170 174 172 165 153 131 100 75 78 94 104 106 110 118 121 120 122 123 120 122 129 130 120 112 126 139 143 167 175 176 170 142 175 208 226 257 143 259 275 154 52 34 50 61 57 49 48 50 45
217 220 215 212 210 208 204 209 209 212 212 191 194 197 193 189 186 190 187 184 187 188 191 191 189 192 197 194 194 188 185 188 180 183 177 170 173 176 169 156 152 148 134 133 110 86 83 82 83 84 92 105 111 107 114 124 131 139 141 155 157 154 171 187 216 172 133 175 165 175 182 214 126 167 263 157 129 121 95 81 70 74 76 74 62
216 200 206 211 215 215 211 210 201 205 204 191 191 193 192 187 186 184 178 178 181 193 186 189 182 187 196 203 204 198 185 181 177 181 177 176 177 176 175 166 170 173 167 155 135 133 127 111 98 92 78 79 88 100 95 81 83 77 78 121 141 166 173 172 182 146 271 199 138 177 189 154 150 146 176 257 205 126 105 98 79 56 57 41 72